This is the latest recevied weather packets stored in our database for station/object HB9UQS-13. If no packets are shown the sender has not sent any weather packets the latest 10 day(s).
| Time | Temp. | Humidity | Pressure | Rain* | Wind** | Luminosity | Snow |
|---|---|---|---|---|---|---|---|
| 1778107051 | 7.22° C | 90% | 926.5 hPa | 0 mm | - | 0 W/m² | - |
| 1778105251 | 7.78° C | 89% | 926.4 hPa | 0 mm | - | 0 W/m² | - |
| 1778103451 | 7.22° C | 90% | 926.2 hPa | 0 mm | - | 0 W/m² | - |
| 1778101650 | 7.22° C | 89% | 926.2 hPa | 0 mm | - | 0 W/m² | - |
| 1778099850 | 7.78° C | 90% | 925.8 hPa | 0 mm | - | 0 W/m² | - |
| 1778098050 | 7.78° C | 89% | 925.6 hPa | 0 mm | - | 0 W/m² | - |
| 1778096250 | 7.78° C | 87% | 925.2 hPa | 0 mm | - | 0 W/m² | - |
| 1778094450 | 8.33° C | 85% | 925 hPa | 0 mm | - | 0 W/m² | - |
| 1778092650 | 8.89° C | 84% | 924.9 hPa | 0 mm | - | 0 W/m² | - |
| 1778090850 | 9.44° C | 83% | 924.6 hPa | 0 mm | - | 0 W/m² | - |
| 1778089051 | 10° C | 82% | 924.6 hPa | 0 mm | - | 0 W/m² | - |
| 1778087250 | 9.44° C | 84% | 924.3 hPa | 0 mm | - | 0 W/m² | - |
| 1778085451 | 9.44° C | 85% | 924.3 hPa | 0 mm | - | 0 W/m² | - |
| 1778083651 | 9.44° C | 83% | 924.2 hPa | 0 mm | - | 0 W/m² | - |
| 1778081850 | 9.44° C | 87% | 924.3 hPa | 0 mm | - | 0 W/m² | - |
| 1778080050 | 8.89° C | 88% | 924.4 hPa | 0 mm | - | 0 W/m² | - |
| 1778078250 | 8.89° C | 92% | 924.2 hPa | 0 mm | - | 0 W/m² | - |
| 1778076451 | 8.89° C | 89% | 924.1 hPa | 0 mm | - | 0 W/m² | - |
| 1778074650 | 8.89° C | 91% | 924.3 hPa | 0 mm | - | 0 W/m² | - |
| 1778072851 | 8.89° C | 90% | 923.9 hPa | 0 mm | - | 0 W/m² | - |
| 1778071050 | 8.89° C | 92% | 923.9 hPa | 0 mm | - | 0 W/m² | - |
| 1778069250 | 8.33° C | 93% | 923.5 hPa | 0 mm | - | 0 W/m² | - |
| 1778067450 | 8.33° C | 94% | 923.4 hPa | 0 mm | - | 0 W/m² | - |
| 1778065650 | 7.78° C | 95% | 923.3 hPa | 0 mm | - | 0 W/m² | - |
| 1778063850 | 8.33° C | 95% | 923.4 hPa | 0 mm | - | 0 W/m² | - |
* Rain latest hour (hover to see other rain measurements)
** Current wind speed in m/s (hover to see current wind gust speed)